Starlink 30558

operational
NORAD ID: 58060 Int'l Des: 2023-158 Owner: SPXS Country: US Constellation: starlink
LEOCIRCULAR

About Starlink 30558

Description loading...

Live Position

Loading 3D Globe...

Upcoming Passes

Altitude History

Altitude vs Time

uPlot chart will show altitude changes over time

Two-Line Element Set

1 58060U 23158K 26102.53797784 -.00000309 00000-0 -17021-5 0 9999
2 58060 43.0029 196.1294 0001487 263.2083 96.8599 15.27573039138746
Epoch: Apr 12, 2026 • Age: 8 hours

Current Status

Altitude 494.1 km
Velocity 7.62 km/s
Sub-Earth Point -39.74°S, 15.97°W
Launch Date Oct 13, 2023
Age 2.4 years
Type internet

Technical Details

Classification Payload
Mass 730.00 kg
Dry Mass 700.00 kg
Total Mass 730.00 kg
Length 0.30 m
Diameter 4.10 m
Span 29.00 m
Shape Box + pan
Manufacturer SPXS
Bus Type Starlink V2M
Phase Status In Orbit
Owner/State SPXS/US

Large Constellations

Loading constellations...